Home   Weather   Midland   Past weeks

Flag for USA Past Weather in Midland, Texas, USA — Yesterday and Last 2 Weeks

Now
42 °F

Overcast.


Feels Like: 34 °F
Forecast: 26 / 39 °F
Wind: 17 mph from Northeast

Location: Midland - Midland Airpark

Current Time: Dec 7, 2016 at 8:19:24 pm

Latest Report: Dec 7, 2016 at 7:55 pm


Visibility: 10 mi

Pressure: 30.21 "Hg (27.23 "Hg at 847m altitude)

Humidity: 81%

Dew Point: 36 °F

Location of MidlandLocation

Past Weather in Midland — Graph

°F

Midland Temperature Yesterday

Maximum temperature yesterday: 54 °F (at 1:35 am)
Minimum temperature yesterday: 37 °F (at 11:55 pm)
Average temperature yesterday: 44 °F

High & Low Weather Summary for the Past Weeks

 TemperatureHumidityPressure
High73 °F (Nov 24, 3:15 pm)100% (Dec 2, 3:55 pm)30.50 "Hg (Dec 2, 3:55 pm)
Low32 °F (Nov 30, 7:15 am)20% (Nov 28, 4:55 pm)29.57 "Hg (Nov 28, 5:55 pm)
Average51 °F65%30.02 "Hg
* Reported Nov 22 7:15 pm — Dec 7 7:15 pm, Midland, Weather by CustomWeather, © 2016

Note: Actual official high and low records may vary slightly from our data, if they occured in-between our weather recording intervals... More about our weather records

Advertising

Midland Weather History for the Previous 24 Hours

Scroll right to see more
 ConditionsComfort  
Time TempWeatherWind HumidityBarometerVisibility
7:15 pm
Wed, Dec 7
42 °FOvercast.13 mph83%30.19 "Hg10 mi
6:55 pm42 °FOvercast.17 mph83%30.18 "Hg10 mi
6:35 pm43 °FLow clouds.16 mph86%30.15 "Hg10 mi
6:15 pm43 °FMostly cloudy.13 mph86%30.14 "Hg10 mi
5:55 pm44 °FLow clouds.13 mph85%30.12 "Hg10 mi
5:35 pm44 °FLow clouds.12 mph85%30.12 "Hg10 mi
5:15 pm44 °FLow clouds.10 mph85%30.09 "Hg10 mi
4:55 pm45 °FLow clouds.12 mph86%30.08 "Hg10 mi
4:35 pm45 °FLow clouds.10 mph87%30.07 "Hg10 mi
4:15 pm45 °FLow clouds.12 mph86%30.06 "Hg10 mi
3:55 pm46 °FLow clouds.10 mph86%30.04 "Hg10 mi
3:35 pm46 °FLow clouds.8 mph84%30.04 "Hg10 mi
3:15 pm46 °FPartly sunny.9 mph82%30.03 "Hg10 mi
2:55 pm46 °FSunny.7 mph83%30.02 "Hg10 mi
2:35 pm46 °FSunny.8 mph83%30.01 "Hg10 mi
2:15 pm46 °FSunny.7 mph83%30.00 "Hg10 mi
1:55 pm46 °FSunny.7 mph82%30.00 "Hg10 mi
1:35 pm47 °FSunny.6 mph80%30.00 "Hg10 mi
1:15 pm47 °FSunny.No wind79%30.01 "Hg10 mi
12:55 pm47 °FSunny.No wind79%30.01 "Hg10 mi
12:35 pm47 °FSunny.No wind79%30.01 "Hg10 mi
12:15 pm47 °FScattered clouds.No wind79%30.02 "Hg10 mi
11:55 am46 °FPartly sunny.No wind80%30.03 "Hg10 mi
11:35 am46 °FOvercast.No wind80%30.03 "Hg10 mi
11:15 am46 °FLow clouds.No wind81%30.03 "Hg10 mi
10:55 am45 °FLow clouds.No wind83%30.03 "Hg10 mi
10:35 am44 °FLow clouds.No wind85%30.03 "Hg10 mi
10:15 am43 °FLow clouds.3 mph89%30.03 "Hg10 mi
9:55 am42 °FLow clouds.3 mph91%30.02 "Hg10 mi
9:35 am41 °FLow clouds.3 mph100%30.01 "Hg10 mi
9:15 am41 °FLow clouds.5 mph100%30.00 "Hg7 mi
8:15 am39 °FFog.6 mph100%29.98 "Hg1 mi
7:55 am39 °FFog.8 mph100%29.97 "Hg1 mi
7:35 am38 °FFog.13 mph100%29.96 "Hg2 mi
7:15 am38 °FFog.12 mph100%29.96 "Hg5 mi
6:55 am37 °FFog.10 mph100%29.96 "Hg5 mi
6:15 am37 °FFog.10 mph100%29.95 "Hg4 mi
5:55 am37 °FFog.12 mph100%29.94 "Hg5 mi
5:35 am37 °FPassing clouds.8 mph100%29.94 "Hg7 mi
5:15 am37 °FFog.9 mph100%29.94 "Hg1 mi
4:55 am37 °FFog.8 mph100%29.94 "Hg2 mi
4:35 am38 °FFog.7 mph100%29.95 "Hg4 mi
4:15 am37 °FFog.6 mph100%29.97 "Hg5 mi
3:55 am38 °FFog.7 mph100%29.97 "Hg4 mi
3:35 am37 °FFog.5 mph100%29.99 "Hg2 mi
3:15 am37 °FFog.6 mph100%29.99 "Hg2 mi
2:55 am37 °FFog.5 mph100%29.99 "Hg1 mi
2:35 am36 °FFog.6 mph98%29.99 "Hg1 mi
2:15 am36 °FFog.8 mph91%29.99 "Hg5 mi
1:55 am36 °FPassing clouds.5 mph89%29.99 "Hg10 mi
1:35 am36 °FClear.6 mph89%29.99 "Hg10 mi
1:15 am36 °FClear.7 mph87%29.99 "Hg10 mi
12:55 am36 °FClear.7 mph85%30.00 "Hg10 mi
12:35 am37 °FClear.6 mph85%30.01 "Hg10 mi
12:15 am37 °FClear.6 mph84%30.01 "Hg10 mi
11:55 pm
Tue, Dec 6
37 °FClear.3 mph82%30.02 "Hg10 mi
11:35 pm38 °FClear.6 mph80%30.03 "Hg10 mi
11:15 pm38 °FClear.5 mph79%30.03 "Hg10 mi
10:55 pm38 °FClear.6 mph78%30.03 "Hg10 mi
10:35 pm39 °FClear.6 mph77%30.03 "Hg10 mi
10:15 pm39 °FClear.7 mph75%30.03 "Hg10 mi
9:55 pm39 °FClear.5 mph75%30.02 "Hg10 mi
9:35 pm39 °FClear.3 mph77%30.02 "Hg10 mi
9:15 pm39 °FClear.6 mph77%30.02 "Hg10 mi
8:55 pm40 °FClear.5 mph73%30.03 "Hg10 mi
8:15 pm40 °FClear.6 mph73%30.03 "Hg10 mi
Weather by CustomWeather, © 2016

See weather overviewHow to use our weather pages